[Date Prev][Date Next][Thread Prev][Thread Next] - [Date Index][Thread Index][Author Index]
MIR Keps 3-5-00
- Subject: [sarex] MIR Keps 3-5-00
- From: "Dr Dave Larsen [ PhD ]" <doc@xxxxxxxxxxx>
- Date: Wed, 3 May 2000 02:04:48 -0700
MIR
1 16609U 86017A 00124.14805551 -.00002497 00000-0 -18473-4 0 6112
2 16609 51.6489 127.9397 0019205 268.4832 91.3857 15.65585589812073
----
Via the sarex mailing list at AMSAT.ORG courtesy of AMSAT-NA.
To unsubscribe, send "unsubscribe sarex" to Majordomo@amsat.org
AMSAT Home